Regional Weather Roundup
Issued by NWS

Home | Current Version | Previous Version | Text Only | Print | Product List | Glossary On
Versions: 1 2 3 4 5 6 7 8 9 10 11 12 13 14 15 16 17 18 19 20 21 22 23 24 25 26 27 28 29 30 31 32 33 34 35 36 37 38 39 40 41 42 43 44 45 46 47 48 49 50
000
ASUS43 KMPX 281701
RWRMN
WEATHER ROUNDUP FOR MINNESOTA
NATIONAL WEATHER SERVICE TWIN CITIES/CHANHASSEN MN
1200 PM CDT TUE JUL 28 2015


NOTE: "FAIR" INDICATES FEW OR NO CLOUDS BELOW 12,000 FEET WITH NO
SIGNIFICANT WEATHER AND/OR OBSTRUCTIONS TO VISIBILITY. N/A MEANS
CURRENT SKY AND/OR WEATHER CONDITIONS ARE NOT AVAILABLE.

MNZ060>063-068>070-281800-
   Twin Cities Metro

CITY           SKY/WX    TMP DP  RH WIND       PRES   REMARKS
TWIN CITIES    CLOUDY    77  68  73 S12       29.84R
ST PAUL        CLOUDY    76  70  82 SE16      29.83R
CRYSTAL        CLOUDY    79  69  71 S12       29.82R
BLAINE         PTSUNNY   79  72  78 S17       29.83R
LAKEVILLE      CLOUDY    73  70  88 S12       29.86S
EDEN PRAIRIE   CLOUDY    77  68  73 SW16      29.84R
SOUTH ST PAUL  CLOUDY    76  69  80 S9G16     29.84S
LAKE ELMO      FAIR      77  72  83 S12G20    29.85R
$$
MNZ001>005-007-008-013>017-022>024-027-028-281800-
   Northwest Minnesota

CITY           SKY/WX    TMP DP  RH WIND       PRES   REMARKS
BEMIDJI        CLOUDY    74  69  82 S12       29.69S
HALLOCK        PTSUNNY   77  66  69 SW17G24   29.56R
ROSEAU         PTSUNNY   81  72  74 S16G22    29.60F
WARROAD        CLOUDY    79  72  78 S10       29.61F
THIEF RVR FALL PTSUNNY   75  68  78 SW20G29   29.64R
CROOKSTON      MOSUNNY   75  64  69 W17G25    29.64R
FOSSTON        CLOUDY    73  70  88 SW16G24   29.67F
DETROIT LAKES  PTSUNNY   73  64  73 SW18      29.73R
MOORHEAD       MOSUNNY   75  64  69 W20       29.70S
PARK RAPIDS    CLOUDY    75  68  78 SW14G22   29.74R
MAHNOMEN       CLOUDY    74  67  81 SW16G24   29.69S
$$
MNZ006-009>011-018-025>026-281800-
   North Central Minnesota

CITY           SKY/WX    TMP DP  RH WIND       PRES   REMARKS
BAUDETTE       LGT RAIN  73  71  93 S9        29.64F FOG
FLAG ISLAND    CLOUDY    73  70  88 SE15      29.61F
INTL FALLS     CLOUDY    72  69  90 SE9       29.69F
WASKISH        CLOUDY    73  72  94 S6        29.66F
BIG FORK       CLOUDY    75  70  83 S21       29.71F
LONGVILLE      CLOUDY    73  66  78 S9G22     29.75R
GRAND RAPIDS   PTSUNNY   79  66  65 S15G23    29.75S
CRANE LAKE     CLOUDY    70  70 100 SE1       29.77R
ORR            CLOUDY    72  66  83 SE5       29.72S
COOK           CLOUDY    73  70  88 SE3       29.75F
WALKER         CLOUDY    73  68  83 S16       29.71S
$$
MNZ012-019>021-037-281800-
   Northeast Minnesota

CITY           SKY/WX    TMP DP  RH WIND       PRES   REMARKS
DULUTH         PTSUNNY   78  68  71 SW21G30   29.79R
ELY            CLOUDY    72  66  83 S6        29.80R
HIBBING        CLOUDY    77  68  73 S10G24    29.76R
EVELETH        CLOUDY    77  70  78 SW10      29.78R
DULUTH HARBOR  CLOUDY    81  72  74 SW18G26   29.76R
TWO HARBORS    CLOUDY    81  72  74 S9G17     29.77S
SILVER BAY     CLOUDY    77  66  69 E7        29.78R
GRAND MARAIS     N/A     63  57  81 E10       29.84S
G MARAIS ARPRT CLOUDY    66  59  77 SE7       29.89S
$$
MNZ029>031-032-039>041-046>048-054>057-064-281800-
   West Central Minnesota

CITY           SKY/WX    TMP DP  RH WIND       PRES   REMARKS
FERGUS FALLS   MOSUNNY   75  66  73 W21G26    29.74R
WHEATON        SUNNY     75  64  69 W14       29.78R
MORRIS         PTSUNNY   77  70  78 W13       29.78R
ALEXANDRIA     PTSUNNY   77  67  71 SW16G24   29.80R
ELBOW LAKE     CLOUDY    76  67  73 W13G24    29.77R
WADENA         CLOUDY    73  68  83 SW22      29.75R
GLENWOOD       PTSUNNY   79  68  69 SW18      29.81R
APPLETON       CLOUDY    79  68  69 W16       29.78R
BENSON         MOSUNNY   79  66  65 W13       29.80R
ORTONVILLE     PTSUNNY   77  66  69 SW16G22   29.79R
MADISON        CLOUDY    79  66  65 SW13G18   29.80R
WILLMAR        PTSUNNY   77  70  78 S5        29.84R
$$
MNZ033>034-036-042>043-049>051-058-059-281800-
   Central Minnesota

CITY           SKY/WX    TMP DP  RH WIND       PRES   REMARKS
ST CLOUD       CLOUDY    77  68  73 S15       29.82S
SAUK CENTRE    PTSUNNY   76  68  77 S8G17     29.81S
PAYNESVILLE    CLOUDY    73  67  79 SE7       29.83S
AITKIN         MOSUNNY   79  68  69 S16G25    29.76S
PINE RIVER     CLOUDY    75  68  78 S13G21    29.79R
BRAINERD       PTSUNNY   76  67  73 S15G29    29.78S
STAPLES        CLOUDY    75  66  73 S12G18    29.77R
LONG PRAIRIE   FAIR      77  68  73 S10       29.80S
LITTLE FALLS   CLOUDY    73  66  78 S10       29.81S
LITCHFIELD     CLOUDY    75  72  88 SE5       29.84S
BUFFALO        CLOUDY    76  66  71 S10G16    29.85S
MAPLE LAKE     CLOUDY    77  70  78 SW8G17    29.85S
$$
MNZ037-044-045-052-053-281800-
   East Central Minnesota

CITY           SKY/WX    TMP DP  RH WIND       PRES   REMARKS
PRINCETON      CLOUDY    81  70  69 S12G18    29.82S
MORA           PTSUNNY   77  68  73 SW12G22   29.82S
CAMBRIDGE      PTSUNNY   82  68  61 S15G23    29.80S
RUSH CITY      PTSUNNY   78  69  73 S18       29.82R
MOOSE LAKE     CLOUDY    77  68  73 SW13G21   29.77S
HINCKLEY       PTSUNNY   79  72  78 S14G26    29.81R
CLOQUET        CLOUDY    75  68  78 S17G24    29.79R
MCGREGOR       PTSUNNY   79  68  69 S20G25    29.79R
$$
MNZ071>073-080-081-089-090-097-098-281800-
   Southwest Minnesota

CITY           SKY/WX    TMP DP  RH WIND       PRES   REMARKS
MONTEVIDEO     MOSUNNY   82  81  94 NW3       29.83R HX  95
GRANITE FALLS  PTSUNNY   79  69  71 CALM      29.83S
CANBY          PTSUNNY   79  69  70 SW13      29.82R
MARSHALL       SUNNY     82  66  57 W14       29.83R
REDWOOD FALLS  PTSUNNY   76  69  79 SE9       29.82F
OLIVIA         PTSUNNY   73  68  83 S7        29.82F
PIPESTONE      MOSUNNY   79  70  73 W17G24    29.86R
WINDOM         PTSUNNY   79  70  73 S13       29.85R
WORTHINGTON    MOSUNNY   75  68  78 S16G24    29.86R
JACKSON        PTSUNNY   77  70  78 S13       29.87R
SLAYTON        MOSUNNY   80  71  74 S16G22    29.86R
$$
MNZ065>067-074>077-082>085-091>093-281800-
   South Central Minnesota

CITY           SKY/WX    TMP DP  RH WIND       PRES   REMARKS
MANKATO        CLOUDY    73  68  83 S6        29.86R
NEW ULM        CLOUDY    75  72  88 S7        29.84S
ST JAMES       CLOUDY    79  72  78 S9        29.85S
FAIRMONT       CLOUDY    75  66  73 S12       29.85S
GLENCOE        CLOUDY    76  71  83 S5        29.84F
FARIBAULT      CLOUDY    75  70  83 SE9       29.86S
OWATONNA       CLOUDY    75  70  83 SE15      29.86F
WASECA         CLOUDY    73  70  88 SE10      29.86F
ALBERT LEA     CLOUDY    73  72  94 SE15G22   29.85F
$$
MNZ078>079-086>088-094>096-281800-
   Southeast Minnesota

CITY           SKY/WX    TMP DP  RH WIND       PRES   REMARKS
ROCHESTER      CLOUDY    73  69  87 SE16      29.91R
RED WING       CLOUDY    77  70  78 S8        29.84R
STANTON        CLOUDY    76  69  79 S10G16    29.84F
DODGE CENTER   CLOUDY    73  70  88 SE13G18   29.88F
WINONA         CLOUDY    72  70  94 S6        29.86R
AUSTIN         CLOUDY    75  72  88 SE12G24   29.86F
PRESTON        CLOUDY    71  69  92 SE7       29.91S
$$
ABBREVIATIONS USED IN REMARKS
   TC - TEMPERATURES IN CELSIUS
  WCI - WIND CHILL INDEX
   HX - HEAT INDEX
  VSB - VISIBILITY
$$


USA.gov is the U.S. government's official web portal to all federal, state and local government web resources and services.